Wind_Speed
8 8 8 8 7 7 6 6 6 6 5 5 5 5 5 5 5 5 5 5 6 6 7 8 9 9 9 10 10 11 11 11 13 14 15 11 9 10 10 10 8 7 6 5 4 3 6 8 8 8 8 7 5 5 5 5 6 3 2 2 3 3 4 5 7 6 3 4 4 4 6 4 6 9 10 11 13 18 20 21 20 20 22 24 26 26 26 24
10 9 9 9 8 8 7 7 7 6 6 6 5 5 5 5 6 6 6 6 6 7 7 8 9 9 10 11 11 12 12 13 16 16 12 7 5 7 9 11 11 9 7 6 5 4 5 7 9 9 9 7 5 5 4 5 8 5 3 2 5 5 6 7 8 7 4 5 7 10 11 6 10 11 8 7 12 15 14 17 19 21 25 25 28 28 29 29
11 11 10 10 10 9 8 8 8 8 7 7 7 6 6 6 7 7 7 8 8 9 9 9 10 10 12 12 12 13 12 16 15 8 5 3 4 7 7 8 11 12 9 7 6 5 5 7 9 10 10 8 6 6 5 5 7 7 4 2 7 8 6 10 13 13 13 12 9 12 11 7 13 13 7 6 11 14 13 15 15 20 26 25 26 28 29 30
12 12 12 11 11 11 10 10 9 9 9 8 8 8 9 9 9 9 9 9 10 10 10 11 11 12 13 13 14 13 14 16 7 4 8 9 9 10 8 6 9 12 11 9 8 7 6 8 10 9 9 8 7 6 6 8 8 6 6 5 7 5 4 14 18 17 19 15 11 11 8 8 15 13 11 8 7 12 18 19 16 20 25 23 21 25 27 30
13 13 13 12 12 12 12 11 11 11 10 10 10 10 11 11 11 12 12 12 12 11 12 12 12 13 14 15 15 14 13 8 0 3 12 12 8 8 7 5 8 11 13 11 10 10 9 10 11 9 8 6 5 4 6 13 11 5 8 13 12 6 5 16 18 14 15 13 10 9 7 11 14 12 15 12 6 15 26 21 17 21 24 23 22 23 26 28
14 14 13 13 13 13 13 13 13 13 12 12 12 13 13 13 14 14 14 14 14 14 14 14 14 14 15 16 16 15 9 3 6 11 12 8 5 7 7 6 6 9 13 13 12 12 11 12 11 10 7 4 6 7 6 13 14 6 8 13 18 15 12 19 20 15 14 12 11 9 11 15 12 14 17 16 18 30 42 32 27 30 29 27 25 25 27 28
15 14 14 14 14 15 15 15 15 14 14 14 14 15 15 16 16 16 16 16 17 17 17 16 17 16 16 18 18 15 8 10 15 13 8 6 7 8 8 7 5 8 12 14 15 14 13 13 13 12 6 2 6 9 8 10 14 9 6 7 17 20 20 26 26 22 20 17 19 18 16 16 13 13 13 17 28 41 47 40 37 37 34 32 31 30 30 30
15 15 15 15 15 15 16 16 16 16 16 16 16 17 17 18 18 18 18 18 19 18 19 19 18 18 18 19 18 14 12 16 15 9 7 8 9 12 12 9 7 7 10 13 15 15 14 14 16 13 6 5 7 7 6 6 7 8 8 8 11 15 21 27 26 24 22 21 22 18 17 22 22 16 13 26 40 45 45 42 40 38 35 34 33 32 31 31
15 15 15 15 16 16 17 17 17 17 17 17 18 18 18 19 19 20 20 20 20 19 20 19 19 20 19 20 18 14 17 17 11 8 10 10 12 15 15 12 10 9 9 12 14 15 16 17 19 16 9 7 6 5 6 5 5 9 13 12 9 13 20 23 22 21 18 20 19 11 15 27 26 15 16 34 42 39 38 37 36 32 30 30 29 29 30 31
15 15 15 15 15 16 17 17 18 18 18 18 19 19 20 20 20 21 21 21 21 20 20 19 20 20 19 21 16 10 17 17 11 13 14 15 17 17 16 14 12 12 11 13 14 17 19 18 17 15 13 8 5 6 5 6 5 6 10 12 14 17 22 22 19 17 13 16 18 11 13 26 22 6 12 34 37 32 31 32 33 28 28 29 27 27 27 30
16 15 15 14 14 15 16 16 17 17 17 18 18 19 20 21 21 22 22 22 22 21 20 19 20 19 19 21 16 14 21 21 18 20 19 19 20 19 18 15 15 14 13 14 14 16 18 18 14 9 8 5 4 5 6 9 7 7 7 11 16 13 21 23 15 16 12 11 18 16 12 20 14 2 17 39 39 32 30 32 34 31 33 33 30 30 29 31
17 17 16 15 15 15 15 16 16 16 16 17 17 18 19 20 21 22 22 22 22 21 20 19 18 18 18 20 25 25 26 25 23 23 21 21 21 20 20 18 17 16 15 15 14 15 16 17 15 12 9 5 2 2 4 7 5 8 5 7 14 7 15 22 12 13 12 7 12 12 5 11 7 12 31 42 38 32 30 32 35 35 36 36 34 33 32 34
18 17 17 17 17 16 16 16 16 16 16 16 17 17 18 19 19 21 21 21 21 21 20 19 17 17 15 20 29 29 25 25 24 24 22 23 23 23 22 20 19 17 17 16 15 16 15 16 15 16 15 9 4 4 5 3 3 8 3 1 9 7 10 11 1 3 7 5 7 10 2 9 9 21 36 37 33 31 28 31 34 34 35 35 33 33 33 35
17 17 17 17 17 17 17 17 17 17 17 17 17 17 17 18 18 20 20 20 20 20 20 19 17 16 14 20 29 29 26 25 25 25 23 23 23 23 23 21 19 18 17 17 17 17 15 13 12 13 15 13 10 9 7 5 3 4 2 0 3 3 8 6 5 2 4 5 11 12 5 10 11 23 34 31 27 26 26 31 33 33 34 34 32 33 35 36
15 16 16 16 17 17 17 17 18 18 18 19 19 18 18 18 18 19 19 19 19 18 19 18 17 14 12 19 26 25 24 25 24 22 19 20 21 22 22 19 18 18 18 17 17 18 15 11 10 9 9 12 12 8 4 4 3 2 2 4 1 2 8 13 9 6 8 6 10 11 5 9 11 22 32 25 20 21 24 30 32 33 36 35 35 36 38 40
12 13 14 15 15 16 17 17 18 19 19 20 20 20 20 19 19 19 19 19 18 18 17 16 16 12 7 13 21 22 24 24 21 19 18 19 20 20 20 17 16 17 17 17 17 16 13 10 9 8 7 7 6 1 3 4 5 3 2 5 4 4 5 9 12 8 9 4 6 9 7 6 8 18 27 22 19 20 22 28 32 35 38 38 38 38 41 46
11 11 12 12 13 14 15 16 17 18 20 20 21 21 21 21 20 19 19 18 17 16 14 13 12 10 9 14 19 22 23 21 18 16 15 16 17 18 19 18 17 16 14 14 14 11 9 9 8 6 5 3 2 4 3 2 6 4 2 4 5 7 6 5 9 8 3 5 6 8 9 11 11 15 24 26 25 21 19 27 33 36 38 39 40 41 45 50
10 11 11 11 12 13 14 15 16 17 19 19 20 20 20 20 19 18 17 16 13 9 9 10 7 3 9 14 14 16 17 15 13 13 14 16 17 17 17 17 16 13 10 8 9 9 9 7 5 1 1 2 2 4 3 6 8 7 6 5 4 6 7 7 8 6 4 6 7 5 9 16 15 14 23 33 33 25 23 29 34 37 38 40 41 44 50 52
10 11 11 11 11 11 13 14 14 16 18 17 17 18 18 16 14 13 13 11 9 5 4 9 10 4 6 11 13 17 19 18 17 18 21 21 19 17 15 14 11 9 8 4 5 10 11 4 4 2 2 6 7 7 11 14 14 12 8 6 6 6 8 9 10 8 6 10 9 8 15 17 15 13 18 30 33 30 31 32 33 35 38 40 42 47 51 51
10 10 10 11 11 11 12 13 14 15 17 16 15 15 12 9 7 7 8 11 13 13 13 14 16 17 17 20 24 25 24 24 24 23 22 20 17 13 13 11 8 8 7 5 5 8 9 5 3 6 9 12 13 13 16 16 10 7 4 6 8 8 10 10 11 12 6 6 9 12 18 17 15 14 14 25 28 24 28 30 30 33 36 40 42 47 49 50
9 10 10 10 11 12 12 13 14 14 15 16 15 13 8 5 3 6 8 13 18 21 24 24 24 27 28 29 29 26 21 21 23 23 19 16 12 9 11 10 6 4 4 4 4 2 5 6 7 12 14 13 13 13 13 10 6 6 6 7 9 8 13 11 12 15 6 4 9 10 18 20 17 15 13 19 19 16 23 27 29 33 35 39 42 46 49 51
10 10 10 10 10 11 12 13 13 13 14 14 14 11 9 8 7 9 9 11 19 23 24 27 29 33 33 33 34 30 20 15 17 18 15 13 12 9 8 8 5 3 3 4 1 1 3 6 10 14 13 9 8 5 5 6 6 7 5 6 8 6 10 11 11 15 6 4 8 8 16 18 15 16 13 14 17 20 29 32 36 38 34 37 42 46 50 51
12 11 11 10 9 11 11 11 13 12 12 12 12 11 11 10 9 11 9 7 14 20 22 25 28 33 33 31 33 29 19 14 15 17 17 14 13 11 9 8 4 2 4 6 7 6 5 6 12 17 12 7 7 4 4 5 5 6 6 6 8 4 6 9 7 8 4 4 7 9 15 14 11 16 13 17 25 25 31 38 42 43 40 43 48 47 47 47
13 13 13 12 10 11 11 11 12 12 12 11 11 12 11 11 10 11 10 6 7 12 18 22 20 23 26 22 19 16 15 16 15 14 16 18 15 10 8 8 5 3 5 10 11 11 9 6 8 11 9 8 9 8 5 5 6 9 9 7 10 10 11 12 5 5 5 5 7 9 15 11 9 13 9 12 20 20 26 31 34 42 48 49 46 43 45 48
14 13 14 14 12 12 12 13 12 11 12 10 10 11 11 10 9 10 9 4 4 6 10 12 10 9 12 11 8 7 9 12 15 13 11 16 18 9 4 8 6 4 7 8 8 10 10 8 5 5 6 8 9 7 6 7 9 10 8 10 16 17 13 13 8 7 6 5 5 3 9 10 4 9 7 6 8 10 15 18 24 39 45 39 35 39 46 48
17 15 14 15 14 13 13 13 11 11 12 10 10 11 11 9 8 9 7 2 4 4 4 5 5 3 4 4 4 6 4 4 8 13 13 15 19 11 2 5 4 3 6 5 3 4 5 8 8 7 7 7 6 6 7 10 8 9 6 12 16 14 11 12 8 4 2 5 4 3 2 10 4 5 7 7 7 10 12 12 19 29 32 30 35 42 45 45
19 17 16 16 15 14 14 12 11 11 11 9 9 10 8 6 7 8 6 3 5 2 4 4 4 3 3 5 10 10 3 2 1 6 13 15 16 12 5 3 3 3 5 3 2 3 3 4 5 5 4 5 5 7 8 11 7 7 5 9 11 9 9 8 5 5 4 3 4 2 4 8 11 4 8 9 10 12 13 13 14 19 26 34 40 42 40 41
19 18 18 18 17 17 16 14 14 12 10 9 8 9 6 5 6 5 4 3 4 3 4 3 5 3 1 7 13 8 1 0 1 1 8 12 13 10 5 6 6 4 4 4 4 5 4 3 6 6 4 5 7 7 6 11 7 5 2 5 6 6 5 4 4 5 2 4 5 4 5 3 12 8 4 5 7 10 13 13 12 15 24 33 35 36 36 36
18 18 19 19 18 19 18 17 16 12 10 9 7 8 7 5 5 5 3 3 2 3 2 3 4 2 3 8 9 5 1 1 1 3 6 9 12 8 3 5 6 4 4 6 7 6 2 2 5 8 5 6 8 6 6 12 8 3 4 4 3 3 2 3 3 3 2 5 6 5 5 3 11 9 1 1 3 8 10 9 9 13 22 29 31 32 32 31
17 17 18 17 17 18 18 17 14 11 10 7 5 8 7 3 1 2 3 4 1 0 2 3 3 2 4 5 3 4 3 2 2 6 5 6 9 7 2 2 3 2 3 3 7 10 6 1 3 5 7 7 5 2 4 10 7 1 2 2 5 4 4 3 0 2 2 7 6 9 11 6 7 6 3 2 4 6 7 5 7 11 17 27 30 30 31 31
18 18 18 18 18 18 18 15 11 10 10 7 5 6 4 1 3 3 7 2 1 1 2 2 0 2 4 3 2 3 1 2 2 6 3 3 4 3 2 1 1 2 3 4 6 8 5 3 2 5 9 6 4 1 1 2 2 1 1 2 4 4 4 5 4 3 2 9 6 10 13 8 7 6 1 4 7 5 6 5 8 10 15 25 29 28 30 31
18 18 19 20 22 21 20 17 12 10 10 6 5 4 1 1 1 6 5 4 2 2 2 1 0 2 2 1 1 3 1 2 2 4 3 2 3 3 3 4 4 1 4 3 3 6 3 6 4 1 5 8 6 2 3 4 2 3 2 1 2 4 4 3 3 1 3 9 5 7 8 5 11 9 3 8 13 11 9 8 11 12 16 25 29 30 32 33
18 18 19 21 23 22 21 19 15 14 12 8 5 2 4 2 5 6 3 1 2 1 2 2 2 3 3 2 2 3 1 2 3 3 1 2 2 3 4 4 5 2 4 3 2 4 4 4 1 1 3 9 9 4 3 2 3 6 5 4 3 1 3 4 3 2 5 7 3 3 5 4 10 8 5 11 14 12 10 10 14 15 17 23 26 27 29 30
18 19 20 21 23 23 21 18 18 19 15 10 5 2 3 5 6 0 2 5 3 2 2 2 3 2 2 2 4 2 1 3 3 4 1 3 1 3 4 5 4 2 1 1 1 2 3 6 3 4 3 7 10 8 8 4 4 6 6 5 5 4 5 5 4 6 8 6 3 1 4 5 6 5 6 9 8 12 13 13 13 11 10 11 13 17 22 26
19 19 20 20 22 24 22 20 21 19 14 12 7 3 3 7 5 0 3 5 3 2 2 1 4 1 2 3 3 2 3 3 2 4 2 2 3 3 3 4 6 4 2 2 3 3 4 7 6 3 2 8 8 7 5 5 1 4 4 5 3 5 5 5 6 8 7 4 3 3 4 5 5 6 8 7 8 11 10 8 7 5 3 4 12 19 24 28
18 18 19 20 22 23 22 23 21 17 16 14 5 4 8 7 3 3 3 1 1 1 2 3 2 1 3 2 3 2 2 2 2 2 2 3 3 4 4 3 7 9 7 5 3 2 4 6 3 1 1 6 7 4 4 5 2 0 3 3 4 3 6 4 7 6 5 5 5 6 7 6 4 8 9 5 5 6 5 4 4 7 6 8 15 19 21 24
16 15 17 20 22 20 21 22 19 19 21 14 5 7 7 5 5 5 2 1 1 2 3 2 2 2 2 2 2 2 1 1 2 2 2 2 3 5 4 4 5 12 13 8 2 3 5 5 4 4 5 6 5 2 3 5 4 3 2 5 2 1 3 3 3 3 5 8 7 8 13 10 6 8 6 5 6 7 5 4 6 8 8 12 16 19 19 21
15 14 18 22 21 18 19 21 20 23 20 9 8 11 5 3 5 4 3 3 2 2 3 3 3 1 2 3 3 3 2 2 3 3 2 2 3 5 5 4 5 11 15 10 2 2 2 4 6 7 7 3 1 1 5 6 5 4 3 1 1 2 4 2 2 3 6 9 6 7 12 10 7 9 10 9 10 12 10 6 6 8 9 11 16 21 23 22
14 12 17 21 18 17 19 19 20 25 15 4 8 10 3 3 5 4 6 5 2 2 2 4 4 1 2 4 3 2 3 4 3 2 3 3 4 3 3 2 3 7 13 10 3 2 2 3 5 5 4 2 3 0 5 7 4 1 2 2 1 4 5 4 3 2 5 9 8 8 10 7 7 9 12 14 12 11 11 6 7 9 10 12 15 19 21 20
13 8 11 14 10 13 18 19 20 20 9 3 7 6 2 2 5 8 12 8 3 3 3 3 4 4 4 4 4 4 4 4 4 3 3 3 4 4 3 3 2 4 6 5 2 1 1 3 5 4 4 2 1 5 7 7 4 2 2 4 4 3 3 4 3 2 4 8 8 9 8 7 5 6 13 16 11 8 9 6 7 11 14 19 19 17 17 17
13 7 9 10 8 12 19 18 15 11 4 4 6 6 5 5 5 5 9 10 7 6 5 3 5 5 4 4 4 3 2 3 5 5 4 4 5 5 5 5 4 2 1 1 2 2 1 2 4 4 4 6 9 8 7 8 7 5 5 5 5 5 3 6 7 6 6 7 7 9 9 7 4 6 15 15 7 6 7 6 9 13 18 24 25 24 23 23
13 7 7 9 11 16 20 14 7 6 4 5 7 7 6 6 5 5 7 9 7 5 5 4 4 5 5 6 6 4 3 4 5 5 5 7 9 8 7 6 5 3 1 1 4 6 4 3 3 6 7 10 14 11 7 8 5 3 3 4 5 5 4 6 9 7 6 8 8 8 10 6 6 9 16 12 5 7 10 11 12 16 23 27 30 32 32 31
15 13 9 8 12 20 18 7 5 7 4 5 8 8 7 5 4 5 6 7 5 4 4 3 4 6 6 6 6 5 4 5 6 7 6 6 8 12 16 16 10 4 2 3 4 4 3 2 3 7 6 6 10 12 9 7 4 3 5 6 7 8 9 10 9 7 7 8 7 8 10 5 4 8 11 11 12 13 15 18 17 17 22 26 27 32 34 34
12 15 14 10 12 19 15 4 6 8 5 6 7 8 9 7 6 8 6 4 5 4 3 3 4 6 6 6 6 6 5 5 7 8 7 5 5 12 22 24 16 7 4 3 1 1 2 2 2 5 4 3 5 7 8 7 4 4 7 9 10 11 13 12 9 7 8 9 11 12 10 6 3 6 7 10 15 16 18 25 24 19 21 26 26 26 27 26
5 9 13 13 15 20 17 11 8 6 6 9 9 9 10 7 9 14 10 6 7 6 3 3 3 3 4 4 4 5 6 6 6 5 4 4 3 6 11 13 11 7 6 8 6 3 2 2 2 4 5 6 7 6 5 5 3 2 4 9 11 13 15 12 9 9 10 12 14 13 11 9 6 7 10 12 16 17 20 27 30 25 23 23 20 19 21 23
2 4 6 9 16 22 23 22 16 7 4 8 8 8 11 10 10 12 10 8 12 11 6 5 4 2 3 4 5 6 8 8 6 4 3 4 3 1 3 8 7 4 8 11 5 2 2 2 5 9 10 10 11 10 8 8 8 9 8 9 10 10 12 11 8 11 12 11 12 12 12 12 9 9 14 16 17 19 20 22 24 23 23 26 30 32 32 32
2 2 3 4 9 15 18 20 19 10 5 7 4 4 10 13 9 7 8 8 10 11 7 6 8 8 6 6 7 8 8 9 8 7 7 6 4 4 8 11 8 6 7 5 4 3 2 3 7 13 14 13 14 16 16 15 15 17 16 15 14 13 12 11 11 13 11 10 12 12 12 13 12 12 15 16 14 13 12 14 19 25 29 30 31 33 35 36
3 3 4 3 3 6 7 10 13 10 8 9 5 4 9 11 8 7 6 5 6 9 6 4 8 12 11 9 7 5 6 8 7 8 7 4 3 5 8 6 2 6 7 4 6 4 2 4 8 12 13 13 14 16 16 15 16 16 16 17 19 19 18 18 20 21 16 14 15 14 16 18 14 9 9 10 12 12 12 15 21 27 29 29 31 32 33 34
5 5 6 4 2 5 6 5 6 6 10 11 7 8 12 14 13 11 5 1 3 6 7 7 6 7 7 5 5 4 5 6 5 3 1 2 3 3 4 4 2 9 9 6 4 0 4 3 6 9 10 10 11 13 13 14 15 16 16 17 19 20 22 24 24 23 21 21 21 20 23 20 9 8 10 13 16 15 15 21 26 28 28 28 29 29 29 30
5 3 4 6 5 7 9 7 6 4 6 8 6 7 11 13 13 10 5 5 5 4 6 7 4 2 2 3 4 5 3 2 1 1 2 4 3 2 2 3 4 7 8 5 3 2 3 2 5 7 8 9 11 12 13 12 13 15 15 16 17 19 21 21 20 19 20 22 22 22 22 14 6 10 10 13 20 19 18 21 24 24 26 27 26 27 28 29
8 6 4 5 4 5 6 4 4 3 3 6 7 6 8 9 8 5 2 4 4 3 3 3 2 1 1 3 4 4 2 4 2 2 1 1 3 4 3 4 6 8 7 4 2 3 2 3 6 7 8 9 10 13 15 13 13 14 16 17 19 19 18 17 15 14 14 15 14 13 9 5 8 11 11 12 17 18 14 15 19 22 26 28 26 26 28 30
10 9 6 4 4 5 3 2 2 4 3 3 4 5 5 3 4 4 2 0 6 9 8 6 3 2 1 3 3 2 3 3 2 6 7 8 12 13 13 13 13 9 6 4 3 2 3 3 4 6 8 9 12 15 14 12 12 13 13 12 13 12 12 11 8 7 9 7 5 2 2 3 6 9 11 12 13 14 12 11 16 22 26 27 28 27 28 30
Wind_Direction
305 308 308 309 309 309 309 309 310 313 318 322 330 337 340 346 350 351 353 354 355 356 353 353 353 349 347 344 341 339 334 327 318 302 292 294 282 258 244 243 240 233 233 234 234 237 219 200 199 203 206 213 232 246 235 226 201 180 105 139 247 207 203 195 191 206 189 268 279 314 298 232 264 273 261 275 266 260 261 255 251 251 253 257 261 264 265 267
302 303 304 305 304 303 302 300 300 300 301 305 310 315 321 327 327 330 332 334 336 338 340 338 339 339 336 336 337 335 333 329 319 306 301 298 286 277 256 245 240 237 238 234 222 229 232 210 204 205 207 214 229 233 223 213 197 184 133 167 231 207 212 206 204 218 216 259 275 300 304 257 255 273 273 275 266 267 267 258 252 252 257 260 263 264 264 264
302 302 303 303 302 301 299 296 294 291 291 293 296 300 303 305 306 310 311 315 319 322 326 326 328 330 327 329 331 332 335 330 320 321 358 15 354 338 306 261 246 241 238 236 218 211 235 217 206 206 209 217 226 223 213 200 200 203 180 223 244 220 237 251 245 247 252 266 286 300 298 259 263 271 255 257 278 278 264 256 249 248 261 267 268 267 265 264
302 303 304 304 304 303 301 298 295 290 288 287 289 292 294 295 295 296 297 300 305 307 312 316 318 321 321 323 326 330 335 332 324 80 19 343 330 329 322 286 249 236 229 228 217 207 220 213 205 204 208 221 221 218 218 204 201 192 180 212 237 204 237 258 257 261 268 274 275 281 292 279 279 272 245 253 297 285 264 262 256 254 268 277 275 274 270 265
300 302 304 305 304 303 302 300 297 294 291 289 288 289 290 292 291 293 295 296 299 300 303 307 309 314 315 316 319 325 340 346 48 21 338 328 332 331 326 298 254 233 221 217 218 211 211 213 209 203 210 226 199 193 232 214 198 181 212 229 237 209 230 263 267 274 277 278 272 270 279 282 285 272 250 239 226 268 275 278 278 276 281 285 281 278 272 265
298 300 302 304 304 302 301 300 298 295 293 292 290 289 289 289 290 293 294 296 298 299 302 303 305 310 311 313 313 316 329 301 292 321 323 322 331 333 335 314 272 241 226 215 220 217 214 215 210 204 206 223 191 189 231 214 199 219 244 237 246 240 240 265 271 274 276 276 273 269 275 279 283 280 265 237 229 267 281 281 281 284 284 285 281 274 268 264
298 299 301 302 302 301 300 299 297 295 294 293 291 291 289 289 290 291 292 294 296 298 301 302 304 307 309 310 309 309 290 271 295 307 305 310 311 318 324 311 285 251 234 224 223 219 221 218 213 211 200 230 214 209 232 216 200 224 262 241 251 249 248 264 270 270 273 273 273 274 279 275 264 274 276 250 254 274 284 282 280 283 283 282 278 271 267 263
298 300 301 300 301 300 299 298 297 296 296 294 293 292 290 290 289 289 291 291 292 295 297 299 301 303 306 307 307 304 282 285 299 294 291 301 302 311 311 299 284 261 247 239 233 226 227 223 221 219 205 228 221 208 219 223 210 218 245 247 251 255 258 268 272 271 272 271 273 274 272 267 262 267 273 268 272 280 284 285 284 284 283 281 277 272 267 263
295 296 297 298 298 299 298 297 297 297 296 295 294 293 292 291 290 290 290 289 291 292 293 296 296 298 301 299 302 300 285 291 297 285 297 300 298 306 302 293 285 274 263 249 238 231 229 229 230 226 232 242 229 223 200 210 236 214 232 253 258 264 270 275 273 269 268 266 264 260 266 271 273 275 270 270 275 283 287 287 288 287 284 281 278 275 269 265
289 290 292 294 296 296 294 294 295 295 295 294 294 293 292 291 291 291 290 291 290 291 292 292 293 294 294 291 290 283 283 289 288 287 295 294 294 299 296 291 283 277 268 256 243 236 235 238 240 236 246 259 241 235 202 200 238 238 250 270 271 274 281 278 271 270 266 263 252 227 256 271 277 284 264 272 276 281 284 285 288 287 285 284 281 278 274 270
285 287 288 289 291 291 291 292 292 292 292 292 291 290 289 289 290 290 290 291 290 291 290 289 289 287 286 285 268 258 279 287 286 287 289 289 290 292 291 282 275 272 263 261 254 250 249 246 247 241 245 255 245 240 227 227 247 287 302 296 283 290 293 279 266 266 255 262 248 218 245 274 280 233 249 271 279 277 277 283 286 284 284 286 284 280 276 274
283 285 285 286 287 287 289 291 291 292 292 291 290 288 287 286 286 286 286 287 287 287 287 285 283 280 281 274 263 267 283 286 283 283 283 284 285 286 285 276 269 265 259 260 259 260 259 250 242 238 240 241 271 296 245 237 264 302 330 313 293 326 305 282 268 255 227 241 246 199 241 281 261 238 252 269 278 274 272 277 282 283 284 286 286 284 280 281
284 284 285 285 285 286 288 289 289 290 291 291 290 288 287 286 285 284 283 283 284 283 283 281 278 277 270 266 272 280 284 282 280 279 279 280 281 281 278 271 265 258 256 256 254 256 256 254 244 240 250 250 254 267 269 292 318 299 326 321 299 337 307 284 28 228 202 214 208 159 228 269 246 254 261 271 277 273 269 271 277 281 282 281 282 285 284 285
288 287 287 286 286 288 289 290 289 289 290 291 290 289 287 286 285 285 284 283 281 280 280 278 276 271 255 263 278 283 281 280 279 277 279 278 276 275 271 267 262 256 254 252 253 256 254 255 248 243 251 249 255 270 291 334 332 294 307 283 304 307 281 299 45 125 225 241 182 164 248 257 256 266 267 274 275 269 264 266 274 278 278 276 276 280 282 282
295 292 290 289 288 289 290 291 291 291 292 292 291 291 290 289 288 286 286 284 282 280 278 275 271 263 252 267 277 280 279 277 277 279 278 271 268 269 267 264 259 254 250 249 251 254 252 246 237 235 246 252 260 274 320 344 342 21 284 280 300 217 269 303 312 217 230 261 171 168 249 254 259 268 271 277 274 264 257 263 272 275 276 274 273 276 278 280
305 301 295 292 290 290 290 291 292 293 293 294 294 294 294 293 291 289 287 284 281 276 272 269 264 252 248 272 274 273 275 276 279 278 269 265 266 266 265 260 254 250 245 245 248 249 245 233 226 228 236 251 247 203 38 352 317 349 216 249 261 246 267 306 304 251 222 232 177 198 234 253 259 265 274 284 279 264 255 262 269 271 273 272 273 274 275 278
317 312 306 302 297 294 294 294 296 296 295 298 298 298 299 297 295 293 287 281 276 268 261 258 253 244 246 263 270 272 275 279 278 269 259 262 265 263 260 253 246 243 239 240 243 237 221 205 205 225 232 233 143 107 55 298 276 293 219 234 245 247 257 282 297 296 237 189 206 229 236 248 255 266 278 282 281 273 257 263 269 270 271 270 271 273 274 277
327 323 319 312 306 304 303 302 304 301 300 304 304 305 306 304 301 295 286 278 267 255 252 235 207 224 254 251 261 275 283 281 266 256 260 264 264 261 254 247 241 233 222 224 228 203 189 191 174 169 286 232 146 123 180 232 237 242 232 242 254 241 247 251 264 295 312 243 220 226 248 252 258 270 278 276 277 277 265 264 269 270 271 271 271 272 274 275
332 330 325 319 314 313 310 309 311 308 307 310 311 312 311 309 306 295 283 266 236 219 243 209 188 208 258 253 265 278 280 274 266 262 264 267 268 259 240 234 228 202 179 177 206 183 174 159 110 132 227 225 211 178 203 223 227 236 232 233 250 249 247 246 254 261 277 276 261 252 259 260 262 263 267 272 273 273 271 267 266 268 271 271 271 271 272 273
328 328 326 324 319 318 318 316 317 315 312 311 314 317 315 316 316 296 275 251 240 247 258 244 235 246 259 268 273 275 274 271 269 267 266 265 262 246 220 206 186 179 178 161 185 183 175 173 158 193 212 216 216 206 215 229 239 251 240 238 247 254 261 254 262 265 247 269 265 254 266 270 266 262 258 267 269 269 272 271 265 264 266 268 269 269 271 272
317 319 322 325 321 320 321 319 320 320 318 315 318 324 324 328 314 289 286 271 266 264 263 263 257 254 262 269 267 266 268 268 266 264 263 257 242 221 202 184 156 179 202 154 149 163 175 200 211 212 217 217 220 219 225 242 265 261 244 260 259 248 263 257 259 271 250 236 260 256 272 274 268 267 258 262 264 257 260 267 268 265 263 266 268 270 272 274
307 307 312 317 317 316 317 321 321 321 324 321 322 331 332 323 300 288 295 283 277 274 266 265 259 256 262 264 258 256 259 267 269 263 257 241 216 208 193 170 170 197 167 142 154 257 214 230 230 226 231 233 243 237 223 238 242 244 241 262 263 248 273 267 249 264 251 222 268 268 269 271 271 270 255 249 253 250 253 257 264 267 265 265 266 268 271 274
296 297 301 302 307 309 308 316 318 319 328 328 328 339 338 328 316 308 304 274 278 281 271 264 256 255 260 261 256 254 251 253 264 264 255 231 205 206 193 164 176 175 157 187 208 227 234 240 231 230 234 237 259 253 219 255 244 224 223 244 262 249 266 264 243 265 266 225 269 282 276 273 266 266 256 243 248 252 255 256 260 264 264 262 262 264 268 271
288 291 294 294 297 301 300 308 314 317 327 334 338 342 342 335 332 329 316 274 272 280 270 263 255 254 260 263 260 252 241 238 246 258 251 228 202 195 198 180 167 175 203 209 216 233 244 245 227 223 221 214 238 244 223 260 262 232 217 223 254 246 240 250 266 319 317 278 279 291 291 282 230 239 250 243 247 250 253 254 260 262 260 261 264 266 267 270
279 282 287 289 290 293 295 302 308 313 320 329 335 339 342 338 337 340 330 299 280 270 257 255 251 251 254 257 255 230 225 233 236 242 244 224 205 190 189 181 176 211 218 213 230 251 257 254 223 191 212 209 220 239 209 211 253 258 221 208 239 248 248 257 283 334 340 301 296 322 303 296 195 196 234 249 252 250 248 249 252 255 259 264 270 271 270 270
275 274 278 284 288 289 290 297 301 309 317 316 324 336 336 334 345 348 349 350 288 264 209 214 218 209 211 216 186 165 186 249 244 234 227 216 206 198 168 172 187 224 198 191 235 257 255 242 218 200 212 197 201 252 220 197 239 275 228 204 229 245 254 260 272 305 280 264 297 76 265 286 279 169 213 241 251 254 249 242 245 253 263 270 270 270 270 272
274 275 274 277 284 285 283 287 289 301 311 306 322 337 331 340 1 359 6 345 285 209 142 182 182 177 209 178 154 149 180 268 341 219 207 203 202 197 205 205 201 227 177 148 283 245 207 230 231 223 207 163 184 249 219 180 208 268 237 201 214 230 242 243 231 231 239 275 290 161 160 271 285 228 194 221 239 258 259 253 256 262 266 267 267 269 272 275
269 271 272 276 283 284 281 278 278 291 298 296 324 337 334 347 354 18 50 300 287 111 118 182 150 139 187 168 170 164 43 268 98 167 189 192 194 186 213 217 188 218 182 151 252 244 164 195 220 198 173 177 208 232 185 160 198 253 160 158 188 205 215 179 175 211 260 342 286 215 145 255 284 265 191 219 236 254 264 260 263 264 263 266 270 275 279 281
261 261 267 274 277 278 276 274 276 282 282 288 320 333 332 327 338 37 90 251 294 89 132 177 151 136 124 151 186 209 347 3 132 150 155 176 190 179 207 217 182 222 231 190 234 256 203 194 185 161 165 210 222 227 167 166 203 234 118 104 69 72 83 115 182 193 62 313 263 195 157 214 283 280 126 54 246 243 260 261 260 264 268 273 276 282 288 288
257 256 259 262 261 264 269 276 280 274 270 275 298 327 338 326 16 56 222 237 326 92 147 150 173 169 130 135 212 242 225 259 152 141 131 148 181 180 158 198 155 181 256 247 248 255 247 179 124 176 206 211 194 177 166 181 208 323 76 4 13 17 24 58 258 92 77 282 251 180 177 183 283 288 143 177 234 228 245 261 276 278 280 283 284 287 293 294
258 255 253 254 257 261 266 274 276 261 256 264 288 319 339 32 83 182 232 249 26 254 122 127 228 111 132 139 228 245 209 261 178 150 147 120 151 162 128 169 119 89 329 304 272 272 258 206 210 222 213 194 148 120 339 191 195 14 32 7 0 326 355 28 351 56 152 264 250 183 180 172 238 266 58 278 272 245 230 252 290 293 285 286 286 287 293 298
261 256 251 252 255 258 261 265 267 256 251 259 294 319 40 91 216 217 242 8 6 249 130 156 245 123 144 63 244 225 153 261 205 147 164 141 153 189 191 194 169 57 306 257 273 310 277 223 234 249 204 189 167 184 318 357 89 124 125 82 353 316 341 356 310 82 203 256 254 182 174 184 242 259 319 289 274 260 236 235 263 275 281 287 290 293 298 300
259 256 253 250 250 253 255 258 258 256 253 246 261 351 92 179 242 220 220 298 251 247 94 112 79 117 130 46 274 232 147 222 189 148 172 116 156 241 260 227 167 179 256 217 307 317 290 269 212 88 240 197 166 158 232 264 164 156 155 159 159 194 273 272 263 270 260 268 286 180 171 246 272 274 250 248 262 272 269 265 268 277 290 295 299 305 311 312
250 252 254 252 252 252 252 252 252 252 247 224 207 72 99 222 249 231 190 228 253 358 74 93 55 54 128 203 246 208 191 253 158 135 123 92 122 269 274 248 195 167 224 214 300 228 253 293 211 176 234 182 176 199 201 162 154 185 163 143 160 180 222 242 236 257 269 280 308 246 182 224 267 278 242 240 274 296 296 295 294 297 299 304 324 346 353 347
249 249 252 253 251 246 243 242 241 242 223 187 162 127 197 231 252 276 213 233 280 333 312 78 93 55 279 250 272 234 208 252 108 111 152 159 184 213 216 224 201 173 145 208 255 177 205 264 241 204 140 152 178 225 194 116 43 241 131 110 204 199 195 236 245 243 258 290 289 239 218 224 243 281 278 268 283 289 293 310 321 318 307 0 18 22 19 9
257 253 252 253 249 245 242 233 225 224 204 176 153 208 219 231 220 185 207 216 183 157 337 326 140 179 276 266 313 314 179 204 135 107 207 200 201 216 226 234 193 181 179 190 237 228 225 251 230 102 80 180 199 230 185 164 183 267 113 174 232 172 155 229 264 247 244 261 248 237 258 272 286 289 289 301 309 303 321 334 283 274 304 12 20 18 19 16
261 256 253 251 249 249 248 238 222 211 197 180 199 228 219 232 201 188 204 122 146 122 83 289 226 186 249 256 278 267 138 190 173 151 208 221 224 199 204 256 202 188 202 208 238 252 247 269 258 252 268 243 224 244 256 228 176 137 202 220 227 60 132 185 251 249 237 246 240 232 252 272 293 282 292 343 329 299 282 268 258 275 321 359 1 356 2 8
260 256 253 251 249 243 245 247 229 207 192 180 230 233 219 230 210 180 160 152 146 101 122 216 236 156 205 240 256 217 197 212 167 157 191 224 232 181 170 235 200 193 216 226 279 285 250 281 273 263 264 267 52 1 293 274 211 189 254 252 137 255 254 212 196 208 233 248 249 222 236 253 256 256 271 275 269 268 262 261 286 296 315 332 338 342 347 350
256 258 259 256 249 234 235 243 221 202 196 197 228 229 210 217 241 224 206 204 168 134 181 225 231 272 234 217 231 238 223 215 190 186 201 214 241 197 162 229 208 211 220 207 195 260 259 270 275 284 286 343 44 261 255 267 258 230 312 317 233 230 236 232 211 180 232 252 256 235 227 230 228 243 264 259 246 246 243 248 289 293 296 308 321 332 336 341
244 245 260 255 239 224 227 226 206 194 201 245 228 235 231 226 261 242 220 214 188 190 222 220 209 234 243 219 227 246 240 218 202 213 221 225 245 235 210 201 190 225 214 184 199 246 7 271 258 282 312 333 277 218 219 235 237 193 227 246 246 237 251 268 244 200 240 250 253 250 237 225 218 242 258 256 245 232 224 232 279 288 301 309 316 324 327 330
226 234 258 238 215 216 210 200 195 195 212 251 241 249 250 250 263 243 223 218 218 228 224 194 203 221 233 245 241 223 219 213 201 209 227 228 238 244 222 191 178 191 135 69 266 217 172 248 237 234 255 256 250 230 195 197 197 181 189 210 228 231 255 279 260 232 234 245 248 255 254 239 204 242 258 256 237 218 229 254 279 291 304 309 311 312 311 310
206 224 253 218 206 212 200 183 192 214 214 230 241 244 245 254 251 238 235 225 220 233 232 218 225 229 237 253 248 223 212 217 205 208 222 223 221 226 229 224 225 231 196 211 235 214 189 180 217 230 228 242 257 256 219 201 209 229 220 212 233 231 214 240 250 244 241 249 252 255 261 246 179 223 257 266 250 239 254 267 279 290 295 298 301 301 302 303
206 223 233 205 203 208 201 190 218 216 217 242 247 248 243 248 247 235 230 220 212 220 229 226 227 233 236 236 236 227 213 217 213 214 228 233 221 223 233 240 248 266 276 255 253 242 207 155 230 254 257 263 273 279 269 240 223 272 259 232 229 233 232 237 245 252 254 255 260 261 258 246 186 226 260 282 285 278 273 270 274 284 288 288 289 292 296 298
221 234 237 228 217 210 202 200 221 217 233 246 244 251 249 245 242 243 233 201 197 198 209 225 224 233 235 226 226 222 214 227 234 230 228 221 219 226 233 241 246 236 211 228 272 311 256 209 217 259 278 286 279 284 283 263 215 222 247 240 234 235 243 254 260 267 265 247 247 258 258 248 250 270 278 284 285 287 284 282 283 287 287 286 287 294 303 312
234 245 243 234 221 216 216 226 232 226 226 235 241 245 250 252 243 246 250 232 219 209 206 237 228 225 236 242 248 236 228 234 249 262 243 222 242 232 234 253 261 246 268 309 347 19 281 244 222 256 264 262 265 262 269 274 254 250 251 242 243 240 240 250 259 257 256 242 238 249 256 251 256 279 284 283 285 288 287 288 290 292 299 313 337 2 9 11
220 246 249 231 216 218 227 234 239 246 223 230 239 233 236 248 252 250 247 244 237 228 231 254 252 252 241 236 252 253 247 240 240 262 269 257 270 267 318 327 325 314 318 325 341 141 208 252 230 245 254 256 266 269 273 286 284 283 281 259 255 252 245 248 249 248 258 259 247 245 254 261 263 270 274 272 274 280 286 297 312 331 356 15 28 33 31 26
207 245 212 204 217 226 235 234 234 236 219 215 220 218 233 243 255 246 225 225 224 215 226 252 238 233 230 226 241 252 249 245 243 247 253 256 261 294 318 315 313 334 345 2 54 126 184 260 246 250 255 254 264 272 274 279 275 272 277 275 272 270 262 258 256 256 267 273 261 254 259 266 262 259 268 276 286 301 320 344 5 21 28 30 30 27 25 21
208 266 220 178 207 234 238 235 235 233 220 216 213 222 240 244 245 235 222 230 220 200 209 256 234 231 235 233 240 250 248 253 258 253 251 265 310 329 326 300 304 15 15 21 36 68 178 259 259 256 261 259 264 272 271 273 273 271 273 274 273 273 270 266 263 262 264 264 265 271 270 269 275 291 310 336 353 359 17 31 34 34 28 24 24 24 22 17
228 279 267 258 271 272 282 289 284 259 230 227 224 220 236 243 241 236 221 230 250 210 214 235 231 227 233 223 211 219 239 252 262 266 285 18 355 335 330 300 9 37 27 7 2 152 196 254 267 263 276 278 273 275 273 271 271 271 268 266 266 267 265 265 266 268 270 268 269 274 271 270 297 352 359 11 11 9 26 33 32 29 23 21 22 20 17 15
238 276 299 307 298 284 288 293 308 306 248 241 241 224 231 240 243 244 222 208 235 236 218 220 209 181 171 148 176 207 218 204 216 294 45 40 3 1 358 310 332 3 356 339 321 273 241 306 325 312 299 286 278 277 274 269 268 272 273 270 267 266 265 267 270 272 273 272 274 276 272 275 344 2 352 7 8 9 24 30 28 25 20 17 16 13 11 8
243 250 290 317 299 276 285 288 286 293 255 238 242 241 247 251 255 267 251 223 226 206 177 155 107 91 165 180 206 214 150 102 137 251 325 305 273 277 271 284 309 324 321 292 273 310 308 310 325 314 288 278 281 280 281 285 285 280 277 274 269 266 265 265 264 268 273 278 287 293 291 315 355 347 345 4 9 7 12 23 24 20 16 14 10 5 2 359
248 252 249 259 275 267 279 340 305 256 242 243 254 264 264 280 15 13 295 9 90 101 96 84 76 46 282 242 240 160 107 64 321 292 291 265 252 252 247 248 257 265 276 284 271 252 246 269 289 284 280 285 283 282 291 302 294 279 276 280 277 273 276 273 279 318 329 317 306 331 26 358 337 343 350 360 7 359 350 12 28 20 13 8 2 357 354 351
Height
1560 1560 1560 1559 1559 1559 1559 1558 1558 1557 1557 1556 1555 1555 1554 1553 1553 1552 1551 1551 1550 1549 1549 1548 1547 1546 1546 1545 1544 1544 1543 1542 1541 1539 1538 1538 1538 1538 1539 1539 1539 1540 1540 1541 1541 1541 1541 1541 1542 1542 1543 1543 1544 1543 1544 1544 1545 1546 1548 1551 1550 1550 1546 1538 1536 1534 1531 1528 1525 1524 1524 1525 1524 1522 1521 1520 1518 1517 1515 1513 1514 1513 1512 1511 1510 1509 1509 1508
1560 1559 1559 1559 1558 1558 1558 1557 1557 1557 1556 1556 1555 1554 1554 1553 1552 1551 1551 1550 1550 1549 1549 1548 1547 1546 1545 1545 1544 1543 1542 1541 1540 1538 1537 1537 1537 1537 1537 1538 1538 1539 1539 1540 1540 1540 1540 1541 1541 1541 1542 1542 1543 1543 1543 1543 1544 1545 1548 1550 1546 1543 1537 1531 1530 1529 1528 1527 1525 1524 1525 1525 1523 1521 1521 1520 1517 1516 1514 1511 1512 1511 1510 1509 1508 1508 1507 1506
1559 1559 1558 1558 1558 1557 1557 1557 1556 1556 1556 1555 1555 1554 1553 1553 1552 1551 1550 1550 1549 1549 1548 1547 1547 1546 1545 1544 1544 1543 1542 1540 1538 1537 1537 1537 1537 1537 1537 1537 1537 1538 1538 1539 1539 1539 1539 1540 1540 1541 1541 1542 1542 1542 1542 1542 1543 1542 1545 1547 1539 1535 1531 1528 1528 1527 1526 1525 1524 1524 1524 1523 1521 1521 1521 1518 1516 1514 1510 1508 1510 1509 1507 1507 1507 1506 1506 1505
1558 1558 1557 1557 1557 1556 1556 1556 1555 1555 1555 1554 1554 1553 1553 1552 1551 1550 1550 1549 1549 1548 1548 1547 1546 1545 1545 1544 1543 1542 1541 1539 1537 1537 1537 1537 1537 1536 1536 1536 1536 1536 1537 1537 1538 1538 1538 1539 1540 1540 1541 1541 1541 1541 1541 1540 1541 1540 1541 1539 1533 1531 1530 1525 1525 1525 1525 1525 1525 1524 1523 1522 1520 1519 1518 1517 1517 1510 1502 1503 1506 1505 1504 1504 1505 1504 1504 1503
1557 1557 1557 1556 1556 1555 1555 1555 1554 1554 1554 1553 1553 1552 1552 1551 1550 1550 1549 1549 1548 1548 1547 1547 1546 1545 1544 1543 1543 1542 1542 1540 1537 1536 1537 1536 1536 1536 1535 1535 1535 1535 1535 1536 1536 1537 1537 1538 1539 1539 1540 1540 1540 1540 1539 1537 1538 1538 1535 1531 1529 1530 1528 1522 1523 1524 1524 1524 1523 1523 1522 1520 1518 1517 1515 1516 1517 1506 1496 1500 1503 1502 1502 1502 1503 1502 1501 1500
1556 1556 1556 1555 1555 1554 1554 1553 1553 1553 1552 1552 1552 1551 1551 1550 1549 1549 1548 1548 1547 1547 1547 1546 1545 1545 1544 1543 1542 1541 1543 1541 1536 1536 1536 1535 1535 1535 1535 1534 1534 1534 1534 1535 1535 1535 1536 1537 1537 1538 1538 1538 1538 1537 1535 1535 1536 1535 1531 1528 1527 1528 1525 1520 1522 1523 1523 1523 1522 1522 1520 1518 1517 1514 1511 1512 1511 1500 1493 1499 1501 1499 1501 1500 1500 1499 1498 1497
1555 1555 1554 1554 1553 1553 1552 1552 1552 1551 1551 1551 1550 1550 1549 1548 1548 1547 1547 1547 1546 1546 1545 1545 1545 1544 1543 1542 1541 1540 1541 1539 1536 1536 1535 1535 1535 1534 1534 1534 1533 1533 1533 1534 1533 1534 1534 1535 1535 1536 1536 1536 1535 1534 1533 1533 1534 1534 1530 1527 1526 1525 1523 1519 1520 1521 1521 1521 1519 1520 1518 1515 1515 1512 1509 1506 1503 1497 1493 1497 1498 1497 1498 1497 1496 1495 1494 1493
1554 1553 1553 1553 1552 1552 1551 1551 1550 1550 1550 1549 1549 1548 1548 1547 1546 1546 1546 1545 1545 1545 1544 1544 1543 1543 1542 1541 1540 1539 1537 1536 1535 1535 1534 1534 1534 1533 1533 1533 1533 1532 1532 1532 1532 1533 1534 1534 1534 1534 1534 1533 1533 1532 1532 1533 1533 1532 1528 1525 1524 1523 1520 1518 1519 1518 1519 1519 1517 1519 1515 1511 1511 1512 1507 1500 1497 1494 1493 1495 1494 1494 1494 1493 1491 1490 1490 1490
1553 1552 1552 1551 1551 1550 1550 1549 1549 1549 1548 1548 1547 1547 1546 1545 1545 1544 1544 1543 1543 1543 1542 1543 1542 1541 1541 1540 1539 1537 1533 1533 1534 1533 1533 1533 1533 1532 1532 1531 1532 1531 1531 1531 1532 1532 1532 1532 1532 1532 1532 1531 1532 1531 1531 1533 1531 1528 1526 1524 1523 1521 1519 1517 1516 1516 1517 1516 1515 1516 1513 1507 1508 1510 1502 1492 1492 1491 1492 1493 1491 1491 1490 1488 1488 1487 1487 1487
1551 1551 1550 1550 1550 1549 1548 1548 1547 1547 1547 1546 1546 1545 1544 1543 1543 1542 1542 1541 1541 1541 1541 1541 1540 1540 1540 1538 1539 1534 1529 1531 1532 1532 1532 1531 1531 1531 1530 1530 1530 1530 1530 1530 1530 1530 1530 1530 1530 1532 1532 1531 1530 1530 1530 1531 1528 1525 1525 1523 1521 1520 1516 1514 1513 1513 1515 1513 1512 1513 1510 1505 1506 1510 1497 1485 1488 1490 1490 1490 1488 1488 1486 1485 1485 1485 1485 1484
1549 1549 1549 1548 1548 1547 1546 1546 1546 1545 1545 1544 1544 1543 1542 1542 1541 1540 1540 1539 1539 1539 1539 1539 1539 1538 1538 1537 1536 1531 1528 1530 1530 1530 1530 1529 1529 1528 1528 1529 1528 1528 1529 1528 1529 1529 1529 1530 1531 1532 1531 1530 1529 1529 1528 1526 1526 1525 1525 1522 1518 1519 1514 1509 1511 1511 1512 1510 1506 1509 1509 1505 1506 1506 1492 1482 1486 1489 1488 1487 1486 1485 1483 1482 1482 1481 1482 1480
1547 1547 1547 1546 1546 1545 1545 1544 1544 1543 1543 1542 1542 1541 1540 1540 1539 1538 1538 1537 1537 1536 1536 1536 1536 1536 1536 1534 1530 1527 1528 1529 1528 1528 1528 1527 1526 1526 1526 1526 1526 1526 1526 1527 1528 1528 1529 1529 1530 1531 1529 1529 1528 1527 1526 1524 1526 1524 1525 1523 1517 1518 1512 1503 1507 1508 1508 1507 1503 1507 1510 1506 1502 1495 1484 1481 1485 1486 1486 1485 1483 1483 1481 1480 1479 1478 1478 1476
1545 1545 1544 1544 1543 1543 1542 1542 1542 1541 1540 1540 1539 1539 1538 1537 1537 1536 1535 1535 1534 1534 1534 1534 1534 1534 1534 1529 1524 1525 1527 1526 1525 1526 1526 1525 1524 1523 1523 1523 1523 1524 1524 1525 1526 1526 1527 1528 1529 1530 1529 1529 1527 1526 1524 1524 1525 1523 1525 1525 1519 1521 1512 1499 1504 1506 1505 1505 1502 1506 1509 1502 1494 1485 1480 1482 1484 1484 1484 1482 1480 1480 1478 1477 1476 1475 1474 1473
1543 1543 1542 1542 1541 1541 1540 1539 1539 1539 1538 1538 1537 1536 1536 1535 1535 1533 1533 1533 1532 1532 1531 1532 1531 1531 1530 1526 1522 1523 1523 1523 1523 1523 1523 1523 1522 1521 1520 1520 1521 1522 1522 1523 1524 1525 1525 1526 1528 1528 1528 1528 1526 1525 1525 1525 1525 1524 1525 1525 1525 1527 1512 1497 1504 1507 1504 1503 1500 1505 1507 1498 1488 1480 1478 1481 1482 1482 1480 1478 1477 1476 1475 1474 1473 1472 1470 1470
1542 1541 1540 1540 1539 1539 1538 1537 1537 1536 1536 1535 1534 1534 1533 1533 1532 1531 1531 1530 1530 1529 1529 1529 1529 1529 1528 1523 1520 1520 1519 1520 1520 1520 1521 1520 1519 1518 1518 1518 1519 1519 1520 1521 1522 1523 1524 1525 1526 1527 1527 1526 1525 1525 1526 1526 1524 1525 1527 1525 1527 1529 1516 1502 1501 1503 1501 1500 1500 1504 1503 1496 1487 1478 1476 1479 1480 1479 1477 1474 1473 1472 1471 1470 1469 1469 1466 1464
1540 1540 1539 1538 1538 1537 1536 1536 1535 1534 1533 1532 1532 1531 1530 1530 1529 1528 1528 1527 1527 1527 1527 1527 1526 1527 1526 1521 1518 1517 1516 1516 1517 1518 1518 1517 1517 1516 1516 1517 1517 1517 1518 1519 1520 1521 1522 1524 1525 1526 1525 1524 1525 1526 1528 1530 1528 1527 1529 1527 1525 1526 1522 1511 1500 1496 1498 1498 1499 1500 1496 1490 1484 1477 1475 1478 1477 1476 1475 1471 1469 1468 1467 1466 1466 1464 1462 1459
1539 1538 1538 1537 1536 1535 1535 1534 1533 1532 1531 1530 1529 1529 1528 1527 1526 1526 1525 1524 1524 1524 1524 1524 1524 1526 1523 1518 1517 1514 1514 1514 1515 1515 1514 1515 1514 1514 1514 1515 1515 1516 1516 1518 1519 1520 1521 1523 1523 1523 1523 1524 1525 1526 1532 1537 1532 1527 1528 1527 1525 1522 1521 1516 1502 1494 1495 1496 1496 1497 1493 1486 1479 1475 1475 1476 1476 1474 1473 1469 1466 1464 1463 1462 1461 1460 1457 1454
1538 1538 1537 1536 1535 1534 1534 1532 1532 1531 1529 1529 1527 1526 1526 1524 1523 1523 1522 1521 1522 1522 1523 1522 1524 1526 1520 1514 1514 1512 1512 1513 1512 1513 1513 1512 1512 1512 1513 1513 1513 1514 1516 1517 1517 1518 1520 1521 1522 1523 1523 1524 1524 1527 1532 1532 1526 1521 1521 1522 1522 1520 1518 1516 1505 1495 1493 1492 1494 1497 1493 1484 1478 1478 1476 1474 1474 1473 1470 1467 1463 1460 1459 1457 1457 1455 1450 1448
1538 1537 1536 1535 1534 1533 1532 1531 1531 1529 1528 1527 1526 1525 1523 1522 1521 1520 1519 1519 1519 1520 1520 1518 1519 1520 1516 1511 1511 1511 1510 1511 1510 1510 1510 1510 1510 1510 1511 1512 1512 1514 1515 1516 1516 1516 1518 1519 1522 1524 1523 1520 1519 1521 1521 1516 1513 1513 1515 1516 1516 1516 1513 1510 1503 1495 1493 1492 1492 1494 1486 1478 1478 1478 1475 1472 1472 1470 1465 1462 1460 1457 1455 1453 1451 1447 1443 1442
1537 1536 1536 1535 1533 1533 1531 1530 1530 1528 1527 1526 1525 1524 1522 1521 1520 1518 1518 1517 1516 1515 1514 1514 1513 1512 1510 1509 1509 1508 1508 1508 1508 1507 1507 1508 1508 1508 1510 1511 1512 1513 1514 1514 1514 1515 1515 1517 1519 1518 1514 1512 1511 1512 1509 1506 1509 1512 1515 1516 1515 1515 1509 1503 1499 1493 1494 1493 1487 1485 1478 1472 1473 1472 1471 1469 1468 1467 1461 1456 1454 1453 1451 1448 1445 1440 1437 1436
1536 1535 1534 1533 1533 1532 1531 1530 1529 1527 1526 1525 1524 1523 1521 1521 1520 1519 1517 1514 1513 1512 1511 1510 1510 1507 1506 1506 1505 1505 1505 1505 1504 1505 1505 1506 1507 1508 1509 1510 1512 1513 1513 1513 1514 1514 1514 1515 1514 1509 1505 1505 1506 1507 1507 1508 1512 1513 1515 1516 1514 1514 1505 1498 1497 1490 1492 1492 1482 1480 1476 1468 1468 1466 1466 1466 1464 1462 1457 1452 1448 1446 1446 1443 1439 1435 1430 1428
1535 1534 1533 1533 1532 1531 1530 1529 1528 1527 1526 1525 1524 1522 1521 1521 1520 1519 1517 1513 1509 1508 1507 1505 1504 1502 1500 1501 1501 1502 1504 1503 1502 1502 1504 1505 1506 1507 1508 1509 1511 1511 1513 1514 1513 1514 1515 1514 1511 1505 1503 1505 1505 1507 1510 1511 1513 1513 1515 1517 1513 1512 1504 1495 1494 1489 1491 1491 1481 1479 1473 1462 1462 1460 1459 1461 1456 1453 1451 1448 1443 1439 1440 1438 1433 1429 1425 1422
1535 1533 1533 1532 1531 1531 1529 1529 1528 1527 1526 1525 1524 1522 1521 1521 1519 1518 1517 1514 1506 1502 1501 1499 1498 1496 1495 1496 1496 1499 1502 1502 1501 1500 1502 1504 1504 1506 1507 1508 1510 1511 1512 1511 1509 1510 1512 1509 1505 1503 1504 1506 1507 1508 1510 1511 1512 1512 1512 1514 1510 1508 1505 1495 1489 1487 1490 1490 1481 1479 1469 1457 1458 1455 1451 1453 1447 1445 1446 1442 1439 1436 1433 1429 1424 1423 1422 1420
1533 1533 1532 1531 1531 1530 1528 1528 1527 1526 1526 1525 1524 1522 1521 1520 1519 1517 1516 1512 1505 1498 1494 1493 1493 1492 1491 1493 1494 1496 1498 1498 1498 1497 1499 1501 1502 1505 1504 1505 1509 1510 1509 1507 1506 1504 1502 1501 1500 1501 1503 1506 1507 1508 1511 1512 1510 1504 1505 1509 1505 1501 1500 1494 1490 1490 1491 1488 1482 1481 1466 1443 1444 1447 1442 1443 1442 1440 1441 1437 1435 1431 1424 1420 1419 1420 1420 1418
1532 1532 1530 1530 1530 1529 1528 1528 1526 1526 1525 1524 1524 1522 1521 1520 1518 1517 1516 1512 1503 1495 1491 1489 1489 1489 1489 1490 1491 1493 1494 1495 1495 1495 1496 1498 1499 1502 1502 1504 1506 1506 1506 1507 1508 1504 1500 1500 1499 1500 1503 1505 1508 1508 1510 1512 1506 1498 1499 1503 1497 1493 1495 1494 1494 1496 1496 1491 1484 1486 1473 1439 1431 1441 1439 1436 1438 1436 1436 1435 1430 1422 1417 1418 1420 1418 1414 1412
1530 1529 1529 1529 1528 1528 1527 1526 1525 1526 1524 1524 1524 1522 1521 1519 1518 1517 1516 1514 1503 1491 1488 1488 1488 1488 1488 1489 1490 1491 1493 1493 1492 1493 1494 1495 1497 1499 1501 1502 1502 1503 1504 1506 1507 1504 1499 1498 1496 1498 1500 1503 1509 1510 1506 1506 1504 1498 1494 1493 1491 1493 1496 1494 1497 1499 1496 1491 1486 1489 1486 1458 1434 1436 1437 1433 1434 1433 1430 1428 1423 1418 1418 1418 1416 1411 1409 1409
1527 1527 1527 1527 1526 1527 1526 1525 1525 1524 1524 1524 1523 1522 1521 1518 1519 1517 1515 1517 1503 1485 1485 1488 1487 1487 1487 1489 1489 1490 1492 1491 1490 1491 1491 1493 1495 1497 1499 1500 1501 1501 1501 1504 1505 1499 1495 1495 1496 1497 1500 1504 1509 1505 1497 1500 1505 1498 1490 1488 1488 1491 1494 1494 1497 1500 1495 1492 1489 1486 1488 1480 1451 1431 1432 1430 1429 1430 1426 1423 1420 1419 1418 1414 1410 1407 1406 1407
1525 1525 1525 1525 1525 1525 1525 1524 1524 1523 1524 1524 1522 1523 1520 1518 1520 1516 1520 1525 1501 1480 1484 1487 1486 1487 1487 1489 1489 1489 1490 1489 1489 1491 1490 1492 1494 1495 1497 1497 1499 1499 1499 1502 1501 1494 1491 1492 1494 1496 1501 1504 1501 1493 1490 1497 1500 1492 1489 1491 1490 1491 1493 1494 1494 1497 1499 1495 1490 1485 1487 1490 1462 1429 1429 1432 1429 1429 1423 1420 1420 1417 1415 1410 1407 1406 1405 1405
1523 1523 1523 1523 1522 1522 1523 1523 1523 1524 1524 1523 1523 1523 1520 1521 1520 1516 1528 1527 1493 1477 1486 1485 1485 1488 1487 1489 1489 1488 1489 1488 1489 1490 1489 1491 1492 1492 1494 1494 1497 1498 1497 1499 1495 1490 1490 1491 1491 1494 1496 1495 1489 1488 1490 1494 1493 1489 1491 1492 1492 1494 1494 1496 1494 1492 1499 1494 1486 1487 1487 1488 1461 1424 1427 1436 1431 1427 1419 1416 1418 1414 1412 1409 1405 1405 1403 1403
1521 1521 1522 1521 1520 1521 1521 1521 1523 1523 1523 1524 1523 1522 1521 1521 1519 1524 1533 1517 1486 1481 1486 1483 1485 1488 1486 1488 1489 1489 1489 1488 1488 1489 1490 1491 1490 1491 1493 1493 1495 1496 1496 1497 1493 1489 1489 1490 1492 1490 1488 1485 1484 1488 1490 1490 1490 1490 1492 1489 1490 1494 1492 1497 1497 1491 1499 1492 1479 1480 1478 1482 1465 1427 1424 1432 1426 1424 1418 1415 1417 1413 1411 1408 1405 1404 1402 1402
1518 1519 1520 1519 1518 1519 1519 1520 1522 1521 1523 1523 1522 1522 1522 1520 1523 1529 1522 1498 1484 1485 1483 1483 1488 1487 1486 1488 1488 1487 1489 1488 1489 1489 1490 1491 1491 1492 1492 1492 1494 1496 1496 1495 1491 1488 1488 1490 1488 1482 1480 1482 1483 1487 1489 1490 1491 1490 1492 1491 1491 1494 1492 1496 1498 1496 1502 1489 1472 1471 1472 1478 1464 1429 1423 1427 1422 1423 1420 1415 1416 1412 1410 1407 1405 1404 1402 1402
1515 1516 1517 1517 1517 1516 1517 1518 1519 1521 1522 1522 1523 1522 1521 1525 1525 1518 1502 1488 1487 1486 1481 1485 1487 1486 1488 1488 1486 1487 1488 1488 1488 1489 1490 1491 1492 1491 1490 1489 1490 1494 1493 1491 1488 1484 1483 1483 1481 1478 1479 1481 1482 1486 1490 1490 1490 1492 1494 1497 1500 1502 1499 1499 1499 1500 1500 1482 1469 1473 1475 1473 1451 1423 1422 1424 1417 1418 1418 1417 1416 1412 1410 1407 1406 1406 1403 1402
1513 1513 1514 1515 1515 1514 1515 1516 1517 1519 1520 1522 1523 1520 1523 1530 1517 1500 1493 1490 1487 1483 1481 1485 1486 1487 1489 1487 1486 1487 1487 1486 1486 1488 1489 1492 1493 1491 1489 1489 1488 1489 1489 1490 1489 1483 1477 1475 1478 1479 1477 1477 1478 1482 1485 1483 1486 1491 1490 1493 1501 1503 1503 1500 1497 1499 1493 1475 1470 1477 1476 1466 1443 1422 1420 1417 1411 1413 1413 1414 1414 1411 1411 1409 1408 1407 1403 1401
1510 1511 1511 1512 1513 1513 1513 1515 1516 1516 1518 1520 1522 1522 1527 1525 1504 1491 1494 1490 1484 1482 1483 1485 1486 1487 1488 1487 1486 1485 1485 1484 1485 1488 1490 1492 1495 1492 1489 1490 1490 1489 1489 1492 1491 1486 1482 1476 1474 1474 1471 1472 1474 1473 1473 1472 1478 1485 1481 1484 1489 1488 1490 1490 1485 1482 1476 1466 1471 1480 1472 1455 1436 1421 1416 1413 1412 1412 1411 1411 1411 1409 1409 1409 1407 1405 1403 1400
1507 1508 1509 1509 1510 1511 1511 1513 1514 1514 1516 1517 1519 1523 1523 1512 1496 1492 1493 1488 1484 1483 1483 1485 1486 1486 1487 1486 1486 1484 1483 1483 1485 1489 1490 1491 1493 1490 1486 1486 1488 1489 1491 1493 1488 1484 1485 1475 1467 1468 1468 1469 1471 1468 1468 1471 1476 1481 1480 1482 1482 1476 1474 1477 1472 1467 1467 1468 1470 1470 1459 1441 1426 1417 1413 1414 1413 1410 1410 1409 1408 1408 1407 1406 1404 1401 1401 1400
1504 1505 1505 1505 1506 1508 1510 1510 1511 1512 1513 1514 1518 1518 1509 1497 1491 1491 1488 1485 1486 1484 1484 1486 1484 1485 1486 1484 1485 1484 1481 1483 1486 1487 1489 1490 1490 1488 1485 1482 1483 1485 1486 1486 1481 1478 1479 1470 1463 1467 1468 1467 1469 1468 1469 1471 1473 1479 1482 1478 1472 1468 1467 1472 1471 1464 1468 1475 1463 1450 1444 1434 1426 1418 1411 1411 1410 1407 1409 1408 1407 1408 1406 1402 1401 1400 1400 1399
1501 1501 1502 1501 1503 1506 1508 1508 1509 1510 1510 1513 1513 1505 1493 1488 1487 1486 1485 1485 1486 1484 1486 1487 1483 1482 1484 1483 1483 1483 1481 1483 1484 1485 1487 1488 1484 1482 1482 1479 1479 1479 1477 1477 1476 1474 1474 1470 1462 1463 1466 1466 1467 1469 1468 1467 1469 1474 1476 1469 1465 1468 1467 1470 1475 1470 1470 1471 1455 1441 1438 1433 1432 1425 1411 1408 1407 1404 1406 1406 1406 1406 1402 1399 1398 1398 1399 1397
1498 1499 1498 1497 1500 1503 1505 1506 1507 1508 1508 1509 1505 1495 1488 1487 1484 1483 1484 1484 1484 1485 1486 1488 1484 1481 1483 1483 1481 1481 1481 1482 1483 1484 1486 1484 1478 1475 1475 1474 1474 1475 1474 1475 1477 1475 1474 1475 1466 1459 1463 1465 1466 1468 1468 1466 1466 1468 1468 1465 1467 1471 1468 1467 1473 1471 1467 1463 1450 1440 1435 1432 1432 1422 1408 1406 1405 1401 1402 1404 1404 1402 1399 1398 1397 1397 1397 1397
1497 1498 1495 1493 1497 1500 1502 1503 1504 1506 1507 1504 1500 1492 1487 1485 1483 1483 1484 1483 1484 1486 1486 1486 1484 1482 1482 1482 1481 1480 1481 1481 1481 1483 1484 1481 1476 1472 1471 1471 1471 1472 1473 1475 1478 1476 1475 1479 1474 1462 1462 1467 1467 1468 1467 1465 1465 1467 1468 1468 1467 1467 1465 1463 1462 1459 1457 1455 1447 1440 1433 1427 1421 1412 1405 1403 1400 1399 1399 1400 1401 1399 1396 1396 1396 1396 1397 1398
1496 1497 1492 1491 1495 1497 1498 1501 1502 1504 1502 1497 1493 1488 1484 1484 1483 1482 1482 1482 1483 1484 1484 1484 1483 1483 1481 1479 1480 1480 1480 1480 1480 1481 1480 1478 1474 1471 1468 1469 1469 1470 1472 1473 1476 1476 1476 1480 1478 1468 1464 1468 1466 1462 1461 1460 1462 1465 1467 1469 1467 1464 1462 1461 1457 1450 1449 1448 1443 1439 1432 1421 1410 1404 1399 1396 1395 1397 1397 1398 1399 1395 1392 1393 1395 1396 1397 1398
1495 1495 1490 1490 1494 1495 1496 1499 1499 1498 1496 1492 1489 1485 1483 1483 1482 1480 1481 1481 1481 1481 1481 1481 1481 1481 1480 1479 1479 1479 1480 1480 1479 1479 1477 1474 1473 1471 1466 1465 1467 1469 1472 1475 1475 1475 1477 1478 1476 1472 1469 1466 1460 1454 1454 1455 1455 1458 1461 1462 1462 1461 1462 1464 1458 1447 1442 1441 1436 1434 1429 1416 1406 1401 1393 1390 1395 1397 1397 1398 1396 1393 1392 1393 1393 1395 1396 1396
1493 1492 1488 1489 1492 1492 1494 1496 1494 1493 1491 1488 1484 1483 1483 1482 1480 1479 1479 1479 1480 1479 1480 1480 1479 1479 1479 1478 1478 1478 1479 1478 1477 1477 1474 1470 1469 1468 1464 1463 1465 1466 1469 1472 1470 1468 1469 1471 1472 1470 1466 1460 1454 1451 1453 1454 1453 1456 1458 1457 1457 1458 1459 1462 1457 1446 1439 1435 1429 1428 1425 1412 1402 1398 1392 1390 1394 1395 1395 1397 1395 1393 1394 1394 1394 1395 1395 1396
1489 1488 1487 1488 1490 1491 1492 1492 1491 1489 1486 1483 1481 1481 1481 1481 1479 1478 1477 1477 1478 1479 1478 1478 1478 1478 1477 1476 1476 1477 1477 1475 1472 1471 1470 1468 1465 1463 1462 1463 1464 1466 1467 1467 1465 1463 1465 1468 1470 1466 1461 1457 1454 1452 1451 1452 1455 1459 1457 1454 1455 1453 1450 1448 1445 1442 1440 1436 1431 1430 1424 1409 1398 1396 1394 1393 1393 1393 1393 1394 1394 1395 1395 1395 1395 1395 1394 1394
1486 1486 1486 1487 1489 1489 1489 1486 1485 1485 1483 1482 1482 1481 1480 1479 1477 1476 1475 1476 1476 1477 1477 1476 1475 1476 1475 1474 1474 1474 1474 1474 1470 1466 1466 1467 1464 1460 1461 1462 1463 1464 1465 1465 1464 1464 1465 1467 1468 1468 1465 1461 1458 1456 1452 1449 1452 1455 1451 1448 1448 1448 1447 1444 1442 1443 1442 1437 1434 1431 1421 1410 1402 1399 1397 1396 1394 1391 1389 1389 1392 1395 1395 1394 1394 1394 1395 1395
1486 1485 1484 1485 1487 1487 1484 1481 1480 1481 1481 1482 1481 1480 1480 1478 1474 1473 1474 1474 1474 1474 1474 1474 1474 1474 1473 1473 1473 1472 1471 1472 1470 1467 1465 1464 1462 1460 1460 1462 1463 1463 1463 1464 1464 1467 1469 1467 1466 1468 1467 1463 1459 1456 1451 1447 1447 1448 1446 1444 1443 1443 1444 1444 1442 1443 1437 1429 1426 1423 1414 1407 1404 1402 1400 1398 1396 1393 1389 1387 1389 1393 1395 1394 1395 1396 1397 1397
1486 1485 1483 1483 1484 1483 1480 1479 1479 1479 1479 1480 1479 1477 1477 1475 1471 1471 1472 1472 1472 1472 1473 1473 1473 1474 1474 1473 1473 1472 1470 1470 1471 1469 1466 1465 1463 1461 1460 1461 1462 1463 1463 1463 1464 1468 1471 1469 1466 1465 1463 1460 1456 1450 1447 1447 1447 1446 1444 1442 1441 1441 1440 1440 1439 1435 1427 1422 1418 1413 1408 1407 1407 1406 1403 1399 1397 1395 1392 1390 1391 1395 1398 1399 1400 1400 1400 1399
1485 1484 1482 1482 1482 1480 1478 1477 1477 1477 1476 1477 1476 1473 1472 1472 1471 1471 1470 1469 1469 1470 1471 1472 1471 1472 1473 1472 1472 1471 1469 1468 1469 1468 1467 1466 1464 1462 1461 1461 1462 1462 1462 1463 1464 1466 1469 1466 1462 1460 1458 1455 1453 1450 1449 1449 1449 1446 1444 1441 1440 1439 1437 1440 1439 1430 1426 1426 1418 1408 1408 1410 1408 1407 1404 1401 1401 1402 1403 1404 1405 1406 1406 1405 1404 1403 1402 1401
1483 1481 1479 1480 1480 1478 1476 1474 1474 1474 1474 1475 1473 1470 1470 1470 1470 1470 1469 1468 1468 1468 1470 1470 1469 1468 1468 1469 1470 1470 1468 1467 1467 1465 1465 1467 1467 1466 1464 1462 1462 1462 1462 1463 1464 1466 1468 1465 1458 1456 1455 1453 1452 1450 1449 1449 1448 1446 1446 1444 1441 1438 1437 1437 1431 1424 1425 1426 1416 1410 1411 1409 1407 1412 1414 1414 1416 1415 1415 1416 1414 1412 1410 1409 1407 1406 1406 1406
1480 1479 1478 1479 1478 1476 1475 1474 1473 1472 1472 1472 1470 1468 1467 1467 1466 1466 1467 1468 1468 1467 1468 1468 1467 1467 1467 1467 1468 1469 1468 1467 1466 1465 1467 1471 1472 1471 1469 1465 1464 1464 1464 1465 1465 1466 1468 1463 1455 1455 1455 1453 1452 1450 1448 1449 1447 1444 1443 1441 1438 1436 1434 1430 1424 1420 1421 1417 1412 1413 1411 1407 1415 1427 1428 1426 1425 1421 1419 1417 1414 1413 1414 1413 1411 1410 1410 1410
1479 1479 1479 1479 1478 1476 1474 1474 1474 1472 1471 1470 1468 1465 1464 1463 1462 1463 1464 1465 1465 1465 1464 1465 1466 1467 1468 1468 1467 1467 1466 1466 1468 1468 1471 1474 1473 1472 1473 1470 1467 1467 1467 1467 1466 1465 1465 1460 1453 1454 1457 1453 1449 1447 1445 1445 1444 1441 1439 1436 1434 1432 1429 1426 1424 1421 1418 1413 1409 1410 1407 1410 1424 1433 1430 1427 1425 1420 1417 1416 1415 1417 1416 1415 1414 1413 1412 1411
1478 1479 1480 1480 1478 1476 1475 1475 1475 1474 1471 1469 1466 1463 1462 1462 1462 1462 1462 1461 1461 1462 1463 1465 1467 1468 1468 1468 1467 1466 1464 1467 1470 1470 1471 1474 1473 1473 1475 1473 1471 1471 1469 1467 1466 1465 1465 1462 1458 1459 1459 1450 1446 1446 1443 1441 1442 1440 1437 1432 1429 1427 1424 1420 1418 1416 1415 1413 1410 1411 1416 1426 1434 1433 1429 1427 1425 1420 1419 1419 1418 1418 1416 1415 1414 1414 1412 1411
1477 1478 1479 1480 1479 1475 1475 1476 1475 1474 1470 1466 1465 1464 1463 1463 1463 1463 1463 1461 1461 1462 1464 1466 1468 1468 1469 1468 1467 1466 1466 1467 1468 1469 1470 1471 1470 1470 1472 1471 1471 1472 1470 1467 1467 1465 1465 1465 1463 1464 1459 1448 1445 1444 1442 1445 1446 1438 1432 1428 1424 1422 1420 1416 1417 1424 1425 1422 1420 1424 1433 1439 1438 1433 1430 1427 1425 1424 1422 1421 1419 1417 1416 1415 1415 1414 1413 1411